Location: Sternwarte auf dem Internationalen Platz Vogelsang IP
(50.5721°N, 6.4398°E)
Time: 09:56:22
(UTC+01:00)

A-11 Canister half - Pass Details

Date: 13 December 2025
Orbit: 1511 x 1688 km, 47.2° (Epoch: 15 January)

Event Time Altitude Azimuth Distance (km) Brightness Sun altitude
Rises 13:15:40 0° 172° (S) 4,641 12.9 15.5°
Reaches altitude 10° 13:21:13 10° 145° (SE) 3,682 11.7 15.3°
Maximum altitude 13:24:30 12° 123° (ESE) 3,515 11.2 15.2°
Drops below altitude 10° 13:27:49 10° 102° (ESE) 3,723 11.1 15.1°
Sets 13:33:28 0° 76° (ENE) 4,751 11.3 14.9°
